Newport Airport, OR

3:47 AM PDT on September 25, 2017 (GMT -0700)
Newport Municipal

Weather History for KONP - August, 2013

Change the Weather History Date:

Saturday, August 3, 2013

  Actual Average Record
Temperature  
Mean Temperature 56 °F -  
Max Temperature 64 °F 62 °F 69 °F (2004)
Min Temperature 48 °F 52 °F 44 °F (2002)
Degree Days  
Heating Degree Days 9    
Growing Degree Days 6 (Base 50)    
Moisture  
Dew Point 54 °F    
Average Humidity 91    
Maximum Humidity 100    
Minimum Humidity 73    
Precipitation  
Precipitation 0.00 in - - ()
Sea Level Pressure  
Sea Level Pressure 30.11 in    
Wind  
Wind Speed 6 mph (North)    
Max Wind Speed 21 mph    
Max Gust Speed 29 mph    
Visibility 8 miles    
Events Fog , Rain    
Averages and records for this station are not official NWS values.
T = Trace of Precipitation, MM = Missing Value Source: NWS Daily Summary

Daily Weather History Graph

Daily Weather History Graph

Search for Another Location

Airport or City:

Trip Planner

Search our weather history database for the weather conditions in past years. The results will help you decide how hot, cold, wet, or windy it might be!

Date:

Astronomy

Aug. 03, 2013 Rise Set
Actual Time 6:05 AM PDT 8:38 PM PDT
Civil Twilight 5:32 AM PDT 9:11 PM PDT
Nautical Twilight 4:50 AM PDT 9:52 PM PDT
Astronomical Twilight 4:03 AM PDT 10:39 PM PDT
Moon 3:17 AM PDT (8/3) 6:26 PM PDT (8/3)
Length of Visible Light 15h 39m
Length of Day
14h 33m
Waning Crescent, 9% of the Moon is Illuminated
Aug 3
Waning Crescent
Aug 6
New
Aug 14
First Quarter
Aug 20
Full
Aug 28
Last Quarter

Hourly Weather History & Observations

Time (PDT) Temp. Dew Point Humidity Pressure Visibility Wind Dir Wind Speed Gust Speed Precip Events Conditions
12:15 AM 50.0 °F 50.0 °F 100% 30.15 in 10.0 mi Calm Calm - N/A   Clear
12:35 AM 50.0 °F 50.0 °F 100% 30.14 in 10.0 mi Calm Calm - N/A   Clear
12:55 AM 50.0 °F 50.0 °F 100% 30.14 in 10.0 mi Calm Calm - N/A   Clear
1:15 AM 50.0 °F 50.0 °F 100% 30.14 in 10.0 mi Calm Calm - N/A   Clear
1:35 AM 50.0 °F 50.0 °F 100% 30.14 in 10.0 mi Calm Calm - N/A   Clear
1:55 AM 50.0 °F 50.0 °F 100% 30.14 in 10.0 mi Calm Calm - N/A   Clear
2:15 AM 50.0 °F 48.2 °F 94% 30.13 in 5.0 mi Calm Calm - N/A   Clear
2:35 AM 50.0 °F 50.0 °F 100% 30.13 in 4.0 mi Calm Calm - N/A   Clear
2:55 AM 48.2 °F 48.2 °F 100% 30.13 in 7.0 mi Calm Calm - N/A   Clear
3:15 AM 50.0 °F 50.0 °F 100% 30.13 in 10.0 mi Calm Calm - N/A   Clear
3:35 AM 50.0 °F 50.0 °F 100% 30.13 in 10.0 mi East 3.5 mph - N/A   Clear
3:55 AM 50.0 °F 50.0 °F 100% 30.13 in 2.0 mi East 4.6 mph - N/A   Scattered Clouds
4:15 AM 51.8 °F 51.8 °F 100% 30.13 in 0.2 mi East 3.5 mph - N/A Rain Rain
4:35 AM 51.8 °F 51.8 °F 100% 30.13 in 0.2 mi East 3.5 mph - N/A   Drizzle
4:55 AM 51.8 °F 51.8 °F 100% 30.13 in 0.5 mi ENE 3.5 mph - N/A Fog Fog
5:15 AM 51.8 °F 51.8 °F 100% 30.13 in 0.2 mi Calm Calm - N/A Fog Fog
5:35 AM 51.8 °F 51.8 °F 100% 30.13 in 3.0 mi East 3.5 mph - N/A   Overcast
5:55 AM 51.8 °F 51.8 °F 100% 30.14 in 3.0 mi ENE 3.5 mph - N/A   Overcast
6:15 AM 51.8 °F 51.8 °F 100% 30.14 in 0.2 mi ENE 3.5 mph - N/A Fog Fog
6:35 AM 51.8 °F 51.8 °F 100% 30.14 in 0.2 mi Calm Calm - N/A Fog Fog
6:55 AM 53.6 °F 53.6 °F 100% 30.14 in 0.2 mi Calm Calm - N/A Fog Fog
7:15 AM 53.6 °F 53.6 °F 100% 30.14 in 0.5 mi ENE 3.5 mph - N/A Fog Fog
7:35 AM 53.6 °F 53.6 °F 100% 30.14 in 0.5 mi East 4.6 mph - N/A Fog Fog
7:55 AM 53.6 °F 53.6 °F 100% 30.14 in 1.0 mi Calm Calm - N/A   Overcast
8:15 AM 55.4 °F 55.4 °F 100% 30.14 in 4.0 mi NE 4.6 mph - N/A   Mostly Cloudy
8:35 AM 55.4 °F 55.4 °F 100% 30.15 in 7.0 mi NE 4.6 mph - N/A   Mostly Cloudy
8:55 AM 57.2 °F 55.4 °F 94% 30.15 in 10.0 mi ENE 4.6 mph - N/A   Scattered Clouds
9:15 AM 57.2 °F 57.2 °F 100% 30.14 in 10.0 mi Calm Calm - N/A   Scattered Clouds
9:35 AM 59.0 °F 59.0 °F 100% 30.14 in 10.0 mi North 3.5 mph - N/A   Scattered Clouds
9:55 AM 59.0 °F 55.4 °F 88% 30.15 in 10.0 mi NW 5.8 mph - N/A   Scattered Clouds
10:15 AM 60.8 °F 55.4 °F 82% 30.14 in 10.0 mi NW 9.2 mph - N/A   Scattered Clouds
10:35 AM 60.8 °F 57.2 °F 88% 30.14 in 10.0 mi NW 8.1 mph - N/A   Scattered Clouds
10:55 AM 60.8 °F 57.2 °F 88% 30.14 in 10.0 mi NW 9.2 mph - N/A   Clear
11:15 AM 60.8 °F 57.2 °F 88% 30.14 in 10.0 mi NNW 10.4 mph - N/A   Scattered Clouds
11:35 AM 62.6 °F 57.2 °F 82% 30.14 in 10.0 mi NW 13.8 mph - N/A   Scattered Clouds
11:55 AM 64.4 °F 57.2 °F 77% 30.13 in 10.0 mi NNW 10.4 mph - N/A   Clear
12:15 PM 62.6 °F 57.2 °F 82% 30.13 in 10.0 mi NNW 12.7 mph - N/A   Clear
12:35 PM 62.6 °F 55.4 °F 77% 30.13 in 10.0 mi NNW 15.0 mph 18.4 mph N/A   Clear
12:55 PM 64.4 °F 55.4 °F 73% 30.12 in 10.0 mi NNW 17.3 mph - N/A   Clear
1:15 PM 62.6 °F 55.4 °F 77% 30.12 in 10.0 mi NNW 18.4 mph 24.2 mph N/A   Clear
1:35 PM 62.6 °F 55.4 °F 77% 30.12 in 10.0 mi NNW 17.3 mph - N/A   Clear
1:55 PM 64.4 °F 55.4 °F 73% 30.12 in 10.0 mi NNW 13.8 mph 21.9 mph N/A   Clear
2:15 PM 64.4 °F 55.4 °F 73% 30.11 in 10.0 mi NNW 17.3 mph 23.0 mph N/A   Clear
2:35 PM 64.4 °F 55.4 °F 73% 30.11 in 10.0 mi NNW 17.3 mph 23.0 mph N/A   Clear
2:55 PM 64.4 °F 55.4 °F 73% 30.11 in 10.0 mi NNW 17.3 mph 23.0 mph N/A   Clear
3:15 PM 60.8 °F 55.4 °F 82% 30.11 in 10.0 mi NNW 16.1 mph 25.3 mph N/A   Clear
3:35 PM 64.4 °F 55.4 °F 73% 30.10 in 10.0 mi NNW 16.1 mph 24.2 mph N/A   Clear
3:55 PM 62.6 °F 55.4 °F 77% 30.09 in 10.0 mi NNW 19.6 mph 27.6 mph N/A   Clear
4:15 PM 62.6 °F 55.4 °F 77% 30.09 in 10.0 mi NNW 18.4 mph - N/A   Clear
4:35 PM 62.6 °F 55.4 °F 77% 30.08 in 10.0 mi NNW 20.7 mph 28.8 mph N/A   Clear
4:55 PM 62.6 °F 55.4 °F 77% 30.08 in 10.0 mi NNW 18.4 mph 24.2 mph N/A   Clear
5:15 PM 60.8 °F 55.4 °F 82% 30.08 in 10.0 mi NNW 15.0 mph 25.3 mph N/A   Clear
5:35 PM 60.8 °F 55.4 °F 82% 30.07 in 10.0 mi NNW 19.6 mph 24.2 mph N/A   Clear
5:55 PM 60.8 °F 55.4 °F 82% 30.07 in 10.0 mi NNW 12.7 mph 25.3 mph N/A   Clear
6:15 PM 60.8 °F 55.4 °F 82% 30.06 in 10.0 mi North 15.0 mph 27.6 mph N/A   Clear
6:35 PM 60.8 °F 55.4 °F 82% 30.06 in 10.0 mi North 17.3 mph 25.3 mph N/A   Clear
6:55 PM 59.0 °F 53.6 °F 82% 30.06 in 10.0 mi NNW 15.0 mph - N/A   Clear
7:15 PM 59.0 °F 53.6 °F 82% 30.06 in 10.0 mi NNW 16.1 mph 24.2 mph N/A   Clear
7:35 PM 59.0 °F 53.6 °F 82% 30.06 in 10.0 mi North 16.1 mph 24.2 mph N/A   Clear
7:55 PM 57.2 °F 53.6 °F 88% 30.06 in 10.0 mi NNW 16.1 mph 25.3 mph N/A   Clear
8:15 PM 55.4 °F 53.6 °F 94% 30.06 in 10.0 mi NNW 13.8 mph 20.7 mph N/A   Clear
8:35 PM 55.4 °F 53.6 °F 94% 30.06 in 10.0 mi North 11.5 mph - N/A   Clear
8:55 PM 55.4 °F 53.6 °F 94% 30.06 in 7.0 mi North 6.9 mph - N/A   Clear
9:15 PM 55.4 °F 53.6 °F 94% 30.06 in 10.0 mi North 9.2 mph - N/A   Clear
9:35 PM 55.4 °F 53.6 °F 94% 30.07 in 10.0 mi North 8.1 mph - N/A   Clear
9:55 PM 55.4 °F 53.6 °F 94% 30.07 in 7.0 mi North 5.8 mph - N/A   Clear
10:15 PM 55.4 °F 53.6 °F 94% 30.07 in 7.0 mi North 8.1 mph - N/A   Clear
10:35 PM 53.6 °F 53.6 °F 100% 30.07 in 7.0 mi North 6.9 mph - N/A   Clear
10:55 PM 53.6 °F 53.6 °F 100% 30.07 in 7.0 mi North 6.9 mph - N/A   Clear
11:15 PM 53.6 °F 53.6 °F 100% 30.07 in 5.0 mi North 6.9 mph - N/A   Clear
11:35 PM 53.6 °F 53.6 °F 100% 30.07 in 5.0 mi North 5.8 mph - N/A   Clear
11:55 PM 53.6 °F 53.6 °F 100% 30.07 in 5.0 mi Calm Calm - N/A   Clear